1292198430426,35.0844
1292198490426,35.0708
1292198550426,34.9841
1292198610426,34.9329
1292198670426,35.0743
1292198730426,34.9831
1292198790426,35.0302
1292198850426,35.0928
1292198910426,35.0374
1292198970426,35.0355
1292199030426,35.0987
1292199090426,35.0755
1292199150426,34.9295
1292199210426,35.0570
1292199270426,35.1167
1292199330426,35.0759
1292199390426,35.0792
1292199450426,35.0267
1292199510426,34.9503
1292199570426,35.0802
1292199630426,35.0396
1292199690426,35.1387
1292199750426,35.0571
1292199810426,35.0614
1292199870426,35.1194
1292199930426,35.1178
1292199990426,35.0340
1292200050426,34.9811
1292200110426,35.0823
1292200170426,35.0564
1292200230426,35.0183
1292200290426,35.2108
1292200350426,35.0823
1292200410426,35.0739
1292200470426,35.1468
1292200530426,35.0708
1292200590426,35.0914
1292200650426,35.1376
1292200710426,35.0944
1292200770426,35.1826
1292200830426,35.1919
1292200890426,35.1965
1292200950426,35.0420
1292201010426,35.1326
1292201070426,35.0876
1292201130426,35.1400
1292201190426,35.1039
1292201250426,35.1609
1292201310426,35.1392
1292201370426,35.1253
1292201430426,35.1077
1292201490426,35.0567
1292201550426,35.1115
1292201610426,35.1862
1292201670426,35.2176
1292201730426,35.2705
1292201790426,35.0693
1292201850426,35.1575
1292201910426,35.1654
1292201970426,35.1501
1292202030437,34.9915
1292202090437,35.1269
1292202150437,35.0600
1292202210437,35.1079
1292202270437,35.0121
1292202330437,35.1399
1292202390437,35.1317
1292202450437,35.0805
1292202510437,35.0914
1292202570437,35.1516
1292202630437,35.0192
1292202690437,34.9964
1292203230437,35.0961
1292203290437,35.1007
1292203350437,35.0436
1292203410437,35.0209
1292203470437,35.2151
1292203530437,35.0969
1292203590437,35.0494
1292203650437,35.1021
1292203710437,35.1160
1292203770437,35.0590
1292203830437,35.1383
1292203890437,35.1251
1292203950437,35.1905
1292204010437,35.2042
1292204070437,35.1710
1292204130437,35.2110
1292204190437,35.0832
1292204250437,35.1995
1292204310437,35.2045
1292204370437,35.1530
1292204430437,35.0466
1292204490437,35.2369
1292204550437,35.2199
1292204610437,35.0800
1292204670437,35.1378
1292204730437,35.0401
1292204790437,35.1237
1292204850437,35.2491
1292204910437,35.1098
1292204970437,35.1597
1292205030437,35.0456
1292205090437,34.9906
1292205150437,35.0693
1292205210437,35.2475
1292205270437,35.2055
1292205330437,35.1092
1292205390437,35.1017
1292205450437,35.1514
1292205510437,35.0769
1292205570437,35.1157
1292205630448,35.1589
1292205690448,35.1130
1292205750448,35.2169
1292205810448,35.0740
1292205870448,35.1294
1292205930448,35.1332
1292205990448,35.1447
1292206050448,35.0824
1292206110448,35.1175
1292206170448,35.1245
1292206230448,35.0239
1292206290448,35.8280
1292206350448,35.1377
1292206410448,35.0208
1292206470448,35.2149
1292206530448,35.1173
1292206590448,35.0495
1292206650448,35.1149
1292206710448,35.0682
1292206770448,35.1712
1292206830448,35.0838
1292206890448,35.1833
1292206950448,34.9962
1292207010448,35.1466
1292207070448,35.0744
1292207130448,34.9759
1292207190448,35.0693
1292207250448,35.1041
1292207310448,35.1037
1292207370448,35.0700
1292207430448,35.0506
1292207490448,35.0362
1292207550448,35.1953
1292207610448,35.0653
1292207670448,35.0943
1292207730448,35.0291
1292207790448,35.0959
1292207850448,35.1284
1292207910448,35.0899
1292207970448,34.9809
1292208030448,35.0996
1292208090448,35.0331
1292208150448,35.0580
1292208210448,35.0507
1292208270448,35.0566
1292208330448,35.0398
1292208390448,34.9867
1292208450448,35.0283
1292208510448,35.0016
1292208570448,35.0131
1292208630448,35.1116
1292208690448,35.1966
1292208750448,35.0004
1292208810448,35.1191
1292208870448,35.1381
1292208930448,35.0781
1292208990448,35.0528
1292209050448,35.0637
1292209110448,35.0769
1292209170448,35.0310
1292209230458,35.1060
1292209290458,34.9402
1292209350458,35.0695
1292209410458,35.1094
1292209470458,35.0421
1292209530458,35.0815
1292209590458,35.0287
1292209650458,35.0617
1292209710458,35.0002
1292209770458,35.0908
1292209830458,34.9968
1292209890458,35.0494
1292209950458,35.1092
1292210010458,35.0266
1292210070458,35.0432
1292210130458,35.0345
1292210190458,35.0497
1292210250458,35.0287
1292210310458,35.0760
1292210370458,35.0326
1292210430458,34.9870
1292210490458,34.9302
1292210550458,35.0113
1292210610458,34.9862
1292210670458,34.9963
1292210730458,35.1101
1292210790458,34.9355
1292210850458,34.9764
1292210910458,35.0316
1292210970458,35.0642
1292211030458,35.0977
1292211090458,35.0610
1292211150458,35.1023
1292211210458,35.0523
1292211270458,35.0949
1292211330458,35.1039
1292211390458,35.0446
1292211450458,35.0159
1292211510458,34.9762
1292211570458,35.1150
1292211630458,34.9926
1292211690458,35.0342
1292211750458,35.1308
1292211810458,35.0406
1292211870458,35.0714
1292211930458,34.9871
1292211990458,35.0583
1292212050458,35.0415
1292212110458,35.0706
1292212170458,35.1273
1292212230458,35.1094
1292212290458,35.1022
1292212350458,35.0853
1292212410458,34.9889
1292212470458,35.0523
1292212530458,35.0190
1292212590458,35.0347
1292212650458,35.0631
1292212710458,35.1117
1292212770458,35.1191
1292212830469,35.1170
1292212890469,35.1536
1292212950469,35.0781
1292213010469,35.0455
1292213070469,35.0424
1292213130469,35.1298
1292213190469,35.0606
1292213250469,35.0497
1292213310469,35.0861
1292213370469,35.0443
1292213430469,35.2645
1292213490469,34.9692
1292213550469,35.0513
1292213610469,34.9928
1292213670469,35.1899
1292213730469,35.0910
1292213790469,34.9701
1292213850469,35.0342
1292213910469,35.0435
1292213970469,35.1509
1292214030469,35.0401
1292214090469,34.9934
1292214150469,34.9487
1292214210469,35.0840
1292214270469,35.0763
1292214330469,35.0823
1292214390469,35.1535
1292214450469,35.0217
1292214510469,35.0616
1292214570469,35.1703
1292214630469,35.0105
1292214690469,35.0348
1292214750469,34.9912
1292214810469,35.0610
1292214870469,34.9613
1292214930469,35.0602
1292214990469,35.0836
1292215050469,35.0797
1292215110469,35.0989
1292215170469,35.1061
1292215230469,35.0541
1292215290469,34.9420
1292215350469,35.0671
1292215410469,35.0476
1292215470469,35.0370
1292215530469,35.0559
1292215590469,34.9234
1292215650469,35.0972
1292215710469,34.9978
1292215770469,35.1236
1292215830469,35.0963
1292215890469,35.1360
1292215950469,35.0303
1292216010469,35.0900
1292216070469,35.1578
1292216130469,35.1125
1292216190469,35.0996
1292216250469,35.0586
1292216310469,35.1372
1292216370469,35.1274
1292216430480,35.1143
1292216490480,35.1633
1292216550480,35.1963
1292216610480,35.0456
1292216670480,35.1029
1292216730480,35.1022
1292216790480,35.1030
1292216850480,35.0200
1292216910480,34.9666
1292216970480,35.0351
1292217030480,35.0253
1292217090480,35.1778
1292217150480,35.2037
1292217210480,35.0120
1292217270480,35.1354
1292217330480,35.1163
1292217390480,35.1725
1292217450480,35.1497
1292217510480,35.1488
1292217570480,35.0154
1292217630480,35.0447
1292217690480,35.1043
1292217750480,35.1658
1292217810480,35.2135
1292217870480,34.9872
1292217930480,35.0197
1292217990480,35.0719
1292218050480,35.1546
1292218110480,35.1427
1292218170480,35.1922
1292218230480,35.1710
1292218290480,35.0779
1292218350480,35.0880
1292218410480,35.0861
1292218470480,35.0783
1292218530480,35.0223
1292218590480,35.0981
1292218650480,35.0725
1292218710480,35.1376
1292218770480,35.0535
1292218830480,35.0323
1292218890480,35.1492
1292218950480,35.1469
1292219010480,35.0084
1292219070480,35.1961
1292219130480,35.1377
1292219190480,35.0919
1292219250480,34.9910
1292219310480,35.1467
1292219370480,35.1232
1292219430480,35.1708
1292219490480,35.1939
1292219550480,35.0890
1292219610480,35.1076
1292219670480,35.0053
1292219730480,35.0361
1292219790480,35.1081
1292219850480,35.1015
1292219910480,35.1437
1292219970480,34.9942
1292220030491,35.0326
1292220090491,35.0009
1292220150491,35.0346
1292220210491,35.1284
1292220270491,34.9950
1292220330491,35.0827
1292220390491,34.9771
1292220450491,34.9685
1292220510491,35.0850
1292220570491,35.1080
1292220630491,35.1693
1292220690491,34.9848
1292220750491,35.1511
1292220810491,35.0494
1292220870491,35.0261
1292220930491,35.0349
1292220990491,35.1075
1292221050491,35.0435
1292221110491,35.0399
1292221170491,34.9264
1292221230491,35.1190
1292221290491,35.0616
1292221350491,35.1008
1292221410491,35.0715
1292221470491,35.0831
1292221530491,34.9838
1292221590491,35.0468
1292221650491,35.0422
1292221710491,34.9894
1292221770491,35.0482
1292221830491,35.0615
1292221890491,35.0013
1292221950491,35.0527
1292222010491,35.0399
1292222070491,34.9985
1292222130491,35.0353
1292222190491,34.9901
1292222250491,35.0492
1292222310491,35.1884
1292222370491,35.1256
1292222430491,34.9932
1292222490491,35.0309
1292222550491,34.9935
1292222610491,35.0277
1292222670491,35.0118
1292222730491,35.0640
1292222790491,34.9987
1292222850491,34.9907
1292222910491,35.0014
1292222970491,35.1004
1292223030491,35.0315
1292223090491,35.0754
1292223150491,35.0402
1292223210491,35.0219
1292223270491,35.1120
1292223330491,35.0666
1292223390491,35.0664
1292223450491,35.1027
1292223510491,35.0133
1292223570491,35.1411
1292223630502,35.0102
1292223690502,35.0262
1292223750502,34.9203
1292223810502,35.1228
1292223870502,35.0989
1292223930502,35.1198
1292223990502,35.0130
1292224050502,35.1014
1292224110502,34.9385
1292224170502,35.1261
1292224230502,35.0233
1292224290502,35.1598
1292224350502,35.1857
1292224410502,35.1036
1292224470502,35.0803
1292224530502,35.0605
1292224590502,35.1020
1292224650502,35.1555
1292224710502,35.0508
1292224770502,35.0479
1292224830502,35.0071
1292224890502,35.0786
1292224950502,35.0353
1292225010502,35.2303
1292225070502,35.1618
1292225130502,35.1366
1292225190502,35.1892
1292225250502,35.1092
1292225310502,35.0513
1292225370502,35.2349
1292225430502,35.1800
1292225490502,35.2010
1292225550502,35.1664
1292225610502,35.0516
1292225670502,35.2965
1292225730502,35.2039
1292225790502,35.2316
1292225850502,35.1367
1292225910502,35.1825
1292225970502,35.1909
1292226030502,35.1551
1292226090502,35.1573
1292226150502,35.2151
1292226210502,35.1098
1292226270502,35.1889
1292226330502,35.2845
1292226390502,35.3475
1292226450502,35.2308
1292226510502,35.2952
1292226570502,35.2262
1292226630502,35.2378
1292226690502,35.3479
1292226750502,35.0507
1292226810502,35.1637
1292226870502,35.2182
1292226930502,35.2642
1292226990502,35.0076
1292227050502,35.2285
1292227110502,35.1980
1292227170502,35.1257
1292227230514,35.1734
1292227290514,35.0790
1292227350514,35.1394
1292227410514,35.1199
1292227470514,35.2507
1292227530514,35.0837
1292227590514,35.1733
1292227650514,35.2470
1292227710514,35.0846
1292227770514,35.2397
1292227830514,35.0776
1292227890514,35.1921
1292227950514,35.1261
1292228010514,35.1219
1292228070514,35.1133
1292228130514,35.2902
1292228190514,35.2853
1292228250514,35.0315
1292228310514,35.0756
1292228370514,35.2090
1292228430514,35.1783
1292228490514,35.1719
1292228550514,35.0567
1292228610514,35.0984
1292228670514,35.0248
1292228730514,35.0923
1292228790514,35.0659
1292228850514,35.0612
1292228910514,35.0654
1292228970514,35.0444
1292229030514,35.1370
1292229090514,35.1152
1292229150514,35.1160
1292229210514,35.1151
1292229270514,35.0182
1292229330514,35.1243
1292229390514,35.1414
1292229450514,35.1059
1292229510514,35.0499
1292229570514,35.2051
1292229630514,35.1390
1292229690514,35.1553
1292229750514,35.0772
1292229810514,35.0050
1292229870514,35.1322
1292229930514,35.1121
1292229990514,35.2208
1292230050514,35.2300
1292230110514,35.1121
1292230170514,35.1782
1292230230514,35.1422
1292230290514,35.1558
1292230350514,35.1098
1292230410514,35.1505
1292230470514,35.1975
1292230530514,35.1260
1292230590514,35.0967
1292230650514,35.1428
1292230710514,35.1788
1292230770514,35.0929
1292230830525,35.1401
1292230890525,35.0466
1292230950525,35.1527
1292231010525,35.2142
1292231070525,35.2102
1292231130525,35.1209
1292231190525,35.0800
1292231250525,35.1660
1292231310525,35.1954
1292231370525,35.1761
1292231430525,35.2127
1292231490525,35.2498
1292231550525,35.1617
1292231610525,35.1943
1292231670525,35.2287
1292231730525,35.1030
1292231790525,35.1027
1292231850525,35.0868
1292231910525,35.1692
1292231970525,35.1237
1292232030525,35.0989
1292232090525,35.1336
1292232150525,35.2101
1292232210525,35.1851
1292232270525,35.1848
1292232330525,35.1553
1292232390525,35.1373
1292232450525,35.1488
1292232510525,35.1796
1292232570525,35.2556
1292232630525,35.1367
1292232690525,35.2086
1292232750525,35.2780
1292232810525,35.1549
1292232870525,35.1598
1292232930525,35.1595
1292232990525,35.1723
1292233050525,35.2781
1292233110525,35.1422
1292233170525,35.0893
1292233230525,35.1110
1292233290525,35.2895
1292233350525,35.2018
1292233410525,35.1282
1292233470525,35.1284
1292233530525,35.1466
1292233590525,35.1854
1292233650525,35.1584
1292233710525,35.2086
1292233770525,35.2493
1292233830525,35.3152
1292233890525,35.1501
1292233950525,35.1650
1292234010525,35.2581
1292234070525,35.0592
1292234130525,35.1973
1292234190525,35.2351
1292234250525,35.2254
1292234310525,35.1878
1292234370525,35.0728
1292234430537,35.2237
1292234490537,35.1260
1292234550537,35.1277
1292234610537,35.2071
1292234670537,35.3485
1292234730537,35.2641
1292234790537,35.1631
1292234850537,35.1468
1292234910537,35.2560
1292234970537,35.1833
1292235030537,35.0865
1292235090537,35.1637
1292235150537,35.2451
1292235210537,35.1961
1292235270537,35.2311
1292235330537,35.1942
1292235390537,35.2293
1292235450537,35.1330
1292235510537,35.0612
1292235570537,35.2412
1292235630537,35.2249
1292235690537,35.1837
1292235750537,35.1657
1292235810537,35.1751
1292235870537,35.1883
1292235930537,35.1695
1292235990537,35.1345
1292236050537,35.1336
1292236110537,34.9758
1292236170537,35.1432
1292236230537,35.2313
1292236290537,35.1570
1292236350537,35.1988
1292236410537,35.1230
1292236470537,35.2033
1292236530537,35.0816
1292236590537,35.2338
1292236650537,35.1966
1292236710537,35.1358
1292236770537,35.1479
1292236830537,35.0300
1292236890537,35.1295
1292236950537,35.1401
1292237010537,35.1056
1292237070537,35.1530
1292237130537,35.1717
1292237190537,35.1605
1292237250537,35.1140
1292237310537,35.1141
1292237370537,35.1140
1292237430537,35.1599
1292237490537,35.1431
1292237550537,35.1099
1292237610537,35.1157
1292237670537,35.1777
1292237730537,35.0806
1292237790537,35.1097
1292237850537,35.1600
1292237910537,35.0822
1292237970537,34.9760
1292238030549,35.1132
1292238090549,35.1364
1292238150549,35.1309
1292238210549,35.1734
1292238270549,35.0400
1292238330549,35.1113
1292238390549,35.1212
1292238450549,35.0457
1292238510549,35.1239
1292238570549,35.2109
1292238630549,35.0874
1292238690549,35.1084
1292238750549,35.1321
1292238810549,35.0550
1292238870549,35.1013
1292238930549,35.2174
1292238990549,35.1468
1292239050549,35.1287
1292239110549,35.0841
1292239170549,35.1679
1292239230549,35.1289
1292239290549,35.0385
1292239350549,35.1401
1292239410549,35.1259
1292239470549,35.1819
1292239530549,35.1893
1292239590549,35.1832
1292239650549,35.1690
1292239710549,35.0462
1292239770549,35.0291
1292239830549,35.1731
1292239890549,35.1451
1292239950549,35.0425
1292240010549,35.2305
1292240070549,35.0935
1292240130549,35.1338
1292240190549,35.1333
1292240250549,35.3303
1292240310549,35.1136
1292240370549,35.1644
1292240430549,35.0779
1292240490549,35.0438
1292240550549,35.0897
1292240610549,35.1047
1292240670549,35.0151
1292240730549,35.0104
1292240790549,35.1251
1292240850549,34.9148
1292240910549,35.0323
1292240970549,35.2383
1292241030549,35.0339
1292241090549,35.0119
1292241150549,35.0677
1292241210549,35.0994
1292241270549,35.0973
1292241330549,35.0857
1292241390549,35.1211
1292241450549,35.0695
1292241510549,35.1062
1292241570549,35.1261
1292241630562,35.0301
1292241690562,35.0968
1292241750562,35.0580
1292241810562,35.0919
1292241870562,35.0735
1292241930562,35.0773
1292241990562,35.0885
1292242050562,35.1093
1292242110562,35.1726
1292242170562,35.1749
1292242230562,35.0116
1292242290562,35.0039
1292242350562,34.9793
1292242410562,35.0389
1292242470562,35.0418
1292242530562,35.0213
1292242590562,35.0783
1292242650562,35.0929
1292242710562,35.1259
1292242770562,35.0040
1292242830562,35.0707
1292242890562,34.9949
1292242950562,35.1800
1292243010562,35.1563
1292243070562,35.1302
1292243130562,35.0676
1292243190562,35.1600
1292243250562,35.0088
1292243310562,35.0563
1292243370562,35.1426
1292243430562,35.1171
1292243490562,35.1146
1292243550562,35.1744
1292243610562,35.0573
1292243670562,35.1034
1292243730562,35.1113
1292243790562,35.1879
1292243850562,35.0442
1292243910562,35.1406
1292243970562,35.0406
1292244030562,35.0868
1292244090562,35.0899
1292244150562,35.0281
1292244210562,35.0929
1292244270562,35.2434
1292244330562,35.1502
1292244390562,35.1265
1292244450562,35.0632
1292244510562,35.0733
1292244570562,35.1261
1292244630562,35.2144
1292244690562,35.1368
1292244750562,35.1623
1292244810562,34.9800
1292244870562,35.0596
1292244930562,35.1130
1292244990562,35.1432
1292245050562,35.1367
1292245110562,35.1391
1292245170562,35.1296
1292245230574,35.0816
1292245290574,35.0731
1292245350574,35.1294
1292245410574,35.1160
1292245470574,35.1171
1292245530574,35.0384
1292245590574,35.1463
1292245650574,35.1364
1292245710574,35.1437
1292245770574,35.0525
1292245830574,34.9897
1292245890574,35.1180
1292245950574,35.1179
1292246010574,35.1727
1292246070574,35.1698
1292246130574,35.0632
1292246190574,35.1656
1292246250574,35.1797
1292246310574,35.1378
1292246370574,35.1892
1292246430574,35.1381
1292246490574,35.0951
1292246550574,35.0566
1292246610574,35.1201
1292246670574,35.1668
1292246730574,35.0404
1292246790574,35.1468
1292246850574,35.0654
1292246910574,35.1236
1292246970574,35.1737
1292247030574,35.0985
1292247090574,35.0809
1292247150574,35.0485
1292247210574,35.0634
1292247270574,35.0923
1292247330574,35.0427
1292247390574,35.1124
1292247450574,35.1950
1292247510574,35.2154
1292247570574,35.1772
1292247630574,35.1921
1292247690574,35.0959
1292247750574,35.2128
1292247810574,35.2136
1292247870574,35.2044
1292247930574,35.2069
1292247990574,35.2280
1292248050574,35.1930
1292248110574,35.2821
1292248170574,35.2571
1292248230574,35.2080
1292248290574,35.3150
1292248350574,35.2728
1292248410574,35.2789
1292248470574,35.4369
1292248530574,35.1651
1292248590574,35.2259
1292248650574,35.3226
1292248710574,35.2698
1292248770574,35.3538
1292248830586,35.2620
1292248890586,35.3205
1292248950586,35.3674
1292249010586,35.3800
1292249070586,35.3835
1292249130586,35.3788
1292249190586,35.4386
1292249250586,35.2844
1292249310586,35.4546
1292249370586,35.4467
1292249430586,35.4179
1292249490586,35.3625
1292249550586,35.4379
1292249610586,35.4490
1292249670586,35.3468
1292249730586,35.4396
1292249790586,35.4783
1292249850586,35.3675
1292249910586,35.4753
1292249970586,35.4908
1292250030586,35.5680
1292250090586,35.4573
1292250150586,35.4559
1292250210586,35.5109
1292250270586,35.5052
1292250330586,35.4854
1292250390586,35.5478
1292250450586,35.4563
1292250510586,35.4674
1292250570586,35.3753
1292250630586,35.4904
1292250690586,35.4717
1292250750586,35.6038
1292250810586,35.5692
1292250870586,35.4605
1292250930586,35.3347
1292250990586,35.4284
1292251050586,35.4340
1292251110586,35.3951
1292251170586,35.3937
1292251230586,35.4889
1292251290586,35.4687
1292251350586,35.4327
1292251410586,35.3758
1292251470586,35.4565
1292251530586,35.4526
1292251590586,35.4201
1292251650586,35.4236
1292251710586,35.4783
1292251770586,35.4877
1292251830586,35.4521
1292251890586,35.3484
1292251950586,35.2616
1292252010586,35.5160
1292252070586,35.4854
1292252130586,35.4451
1292252190586,35.3356
1292252250586,35.4328
1292252310586,35.4988
1292252370586,35.2648
1292252430598,35.3343
1292252490598,35.4011
1292252550598,35.3023
1292252610598,35.2853
1292252670598,35.3616
1292252730598,35.2910
1292252790598,35.2543
1292252850598,35.2985
1292252910598,35.3693
1292252970598,35.3224
1292253030598,35.3357
1292253090598,35.2381
1292253150598,35.3833
1292253210598,35.3171
1292253270598,35.2953
1292253330598,35.2996
1292253390598,35.3482
1292253450598,35.3591
1292253510598,35.3885
1292253570598,35.3558
1292253630598,35.2179
1292253690598,35.3390
1292253750598,35.2216
1292253810598,35.3075
1292253870598,35.3039
1292253930598,35.3604
1292253990598,35.4135
1292254050598,35.3985
1292254110598,35.3170
1292254170598,35.2556
1292254230598,35.3972
1292254290598,35.2608
1292254350598,35.4577
1292254410598,35.1940
1292254470598,35.3138
1292254530598,35.2526
1292254590598,35.3083
1292254650598,35.2617
1292254710598,35.3132
1292254770598,35.1552
1292254830598,35.3097
1292254890598,35.2016
1292254950598,35.2743
1292255010598,35.2844
1292255070598,35.2083
1292255130598,35.1803
1292255190598,35.2737
1292255250598,35.2822
1292255310598,35.3512
1292255370598,35.2657
1292255430598,35.1670
1292255490598,35.2636
1292255550598,35.2915
1292255610598,35.2410
1292255670598,35.2614
1292255730598,35.2388
1292255790598,35.1531
1292255850598,35.2760
1292255910598,35.2391
1292255970598,35.2398
1292256030610,35.2043
1292256090610,35.2808
1292256150610,35.2792
1292256210610,35.2458
1292256270610,35.1887
1292256330610,35.1440
1292256390610,35.2116
1292256450610,35.3803
1292256510610,35.2331
1292256570610,35.2208
1292256630610,35.1866
1292256690610,35.1786
1292256750610,35.2540
1292256810610,35.2263
1292256870610,35.2061
1292256930610,35.2646
1292256990610,35.2378
1292257050610,35.2912
1292257110610,35.1873
1292257170610,35.2820
1292257230610,35.2195
1292257290610,35.1825
1292257350610,35.2367
1292257410610,35.2651
1292257470610,35.2416
1292257530610,35.1957
1292257590610,35.2483
1292257650610,35.2583
1292257710610,35.2442
1292257770610,35.2702
1292257830610,35.3079
1292257890610,35.2534
1292257950610,35.2284
1292258010610,35.2314
1292258070610,35.1129
1292258130610,35.2261
1292258190610,35.1681
1292258250610,35.1957
1292258310610,35.2780
1292258370610,35.1901
1292258430610,35.2952
1292258490610,35.2372
1292258550610,35.2678
1292258610610,35.1926
1292258670610,35.2038
1292258730610,35.1455
1292258790610,35.2438
1292258850610,35.1586
1292258910610,35.0683
1292258970610,35.1913
1292259030610,35.1726
1292259090610,35.3361
1292259150610,35.1945
1292259210610,35.2678
1292259270610,35.3017
1292259330610,35.1511
1292259390610,35.1338
1292259450610,35.2205
1292259510610,35.2429
1292259570610,35.1819
1292259630622,35.2149
1292259690622,35.2021
1292259750622,35.3850
1292259810622,35.3151
1292259870622,35.2511
1292259930622,35.1891
1292259990622,35.3275
1292260050622,35.1595
1292260110622,35.1439
1292260170622,35.2202
1292260230622,35.3050
1292260290622,35.2768
1292260350622,35.2354
1292260410622,35.2534
1292260470622,35.2966
1292260530622,35.1959
1292260590622,35.3299
1292260650622,35.2512
1292260710622,35.1786
1292260770622,35.1946
1292260830622,35.2124
1292260890622,35.2191
1292260950622,35.2021
1292261010622,35.3189
1292261070622,35.2563
1292261130622,35.2709
1292261190622,35.3276
1292261250622,35.3153
1292261310622,35.2696
1292261370622,35.2834
1292261430622,35.2736
1292261490622,35.1963
1292261550622,35.2442
1292261610622,35.1266
1292261670622,35.2797
1292261730622,35.2170
1292261790622,35.2804
1292261850622,35.2956
1292261910622,35.2335
1292261970622,35.2219
1292262030622,35.2381
1292262090622,35.1944
1292262150622,35.2614
1292262210622,35.2103
1292262270622,35.2321
1292262330622,35.1046
1292262390622,35.2000
1292262450622,35.2684
1292262510622,35.2866
1292262570622,35.1950
1292262630622,35.1253
1292262690622,35.2270
1292262750622,35.1409
1292262810622,35.2387
1292262870622,35.2513
1292262930622,35.2403
1292262990622,35.1704
1292263050622,35.3146
1292263110622,35.1677
1292263170622,35.1757
1292263230634,35.1629
1292263290634,35.1895
1292263350634,35.2122
1292263410634,35.1721
1292263470634,35.2238
1292263530634,35.2463
1292263590634,35.2623
1292263650634,35.3165
1292263710634,35.2645
1292263770634,35.1730
1292263830634,35.1912
1292263890634,35.2680
1292263950634,35.2035
1292264010634,35.2454
1292264070634,35.2378
1292264130634,35.2793
1292264190634,35.1716
1292264250634,35.2326